Time,TemperatureF,DewpointF,PressureIn,WindDirection,WindDirectionDegrees,WindSpeedMPH,WindSpeedGustMPH,Humidity,HourlyPrecipIn,Conditions,Clouds,dailyrainin,SolarRadiationWatts/m^2,SoftwareType,DateUTC
2013-09-15 00:01:00,48.3,45.8,30.11,ESE,120,2.0,3.0,91,0.00,,,0.00,0,LWC V2.00 B727,2013-09-15 06:01:00,
2013-09-15 00:06:00,48.5,46.0,30.12,ESE,119,2.0,4.0,91,0.00,,,0.00,0,LWC V2.00 B727,2013-09-15 06:06:00,
2013-09-15 00:11:00,48.6,46.1,30.12,ESE,119,3.0,3.0,91,0.00,,,0.00,0,LWC V2.00 B727,2013-09-15 06:11:00,
2013-09-15 00:16:00,48.7,46.2,30.12,ESE,120,1.0,2.0,91,0.00,,,0.00,0,LWC V2.00 B727,2013-09-15 06:16:00,
2013-09-15 00:21:00,48.8,46.3,30.11,ESE,120,0.0,2.0,91,0.00,,,0.00,0,LWC V2.00 B727,2013-09-15 06:21:00,
2013-09-15 00:26:00,48.9,46.4,30.12,ESE,119,2.0,2.0,91,0.00,,,0.00,0,LWC V2.00 B727,2013-09-15 06:26:00,
2013-09-15 00:31:00,49.0,46.5,30.12,ESE,120,3.0,5.0,91,0.00,,,0.00,0,LWC V2.00 B727,2013-09-15 06:31:00,
2013-09-15 00:36:00,49.0,46.5,30.12,ESE,119,0.0,0.0,91,0.00,,,0.00,0,LWC V2.00 B727,2013-09-15 06:36:00,
2013-09-15 00:41:00,49.0,46.5,30.13,ESE,119,1.0,2.0,91,0.00,,,0.00,0,LWC V2.00 B727,2013-09-15 06:41:00,
2013-09-15 00:46:00,49.2,46.7,30.13,ESE,119,0.0,2.0,91,0.00,,,0.00,0,LWC V2.00 B727,2013-09-15 06:46:00,
2013-09-15 00:51:00,49.2,46.7,30.13,ESE,119,0.0,2.0,91,0.00,,,0.00,0,LWC V2.00 B727,2013-09-15 06:51:00,
2013-09-15 00:56:00,49.2,46.7,30.13,ESE,119,3.0,3.0,91,0.00,,,0.00,0,LWC V2.00 B727,2013-09-15 06:56:00,
2013-09-15 01:01:00,49.4,46.9,30.13,ESE,119,3.0,5.0,91,0.00,,,0.00,0,LWC V2.00 B727,2013-09-15 07:01:00,
2013-09-15 01:06:00,49.4,46.9,30.14,ESE,120,2.0,3.0,91,0.00,,,0.00,0,LWC V2.00 B727,2013-09-15 07:06:00,
2013-09-15 01:11:00,49.6,47.1,30.13,ESE,119,4.0,4.0,91,0.00,,,0.00,0,LWC V2.00 B727,2013-09-15 07:11:00,
2013-09-15 01:16:00,49.7,47.2,30.13,ESE,120,2.0,4.0,91,0.00,,,0.00,0,LWC V2.00 B727,2013-09-15 07:16:00,
2013-09-15 01:21:00,49.8,47.3,30.13,ESE,120,2.0,3.0,91,0.00,,,0.00,0,LWC V2.00 B727,2013-09-15 07:21:00,
2013-09-15 01:26:00,49.9,47.4,30.14,ESE,120,2.0,3.0,91,0.00,,,0.00,0,LWC V2.00 B727,2013-09-15 07:26:00,
2013-09-15 01:31:00,50.0,47.5,30.14,ESE,120,3.0,3.0,91,0.00,,,0.00,0,LWC V2.00 B727,2013-09-15 07:31:00,
2013-09-15 01:36:00,50.1,47.6,30.14,ESE,120,0.0,3.0,91,0.00,,,0.01,0,LWC V2.00 B727,2013-09-15 07:36:00,
2013-09-15 01:41:00,50.2,47.7,30.14,ESE,120,1.0,2.0,91,0.00,,,0.01,0,LWC V2.00 B727,2013-09-15 07:41:00,
2013-09-15 01:46:00,50.3,47.8,30.15,ESE,119,2.0,2.0,91,0.00,,,0.01,0,LWC V2.00 B727,2013-09-15 07:46:00,
2013-09-15 01:51:00,50.3,47.8,30.15,ESE,119,0.0,1.0,91,0.00,,,0.01,0,LWC V2.00 B727,2013-09-15 07:51:00,
2013-09-15 01:56:00,50.4,47.9,30.15,ESE,119,2.0,2.0,91,0.00,,,0.01,0,LWC V2.00 B727,2013-09-15 07:56:00,
2013-09-15 02:01:00,50.4,47.9,30.15,ESE,120,0.0,3.0,91,0.00,,,0.02,0,LWC V2.00 B727,2013-09-15 08:01:00,
2013-09-15 02:06:00,50.5,48.0,30.15,ESE,119,0.0,2.0,91,0.12,,,0.03,0,LWC V2.00 B727,2013-09-15 08:06:00,
2013-09-15 02:11:00,50.5,48.0,30.15,ESE,120,0.0,1.0,91,0.07,,,0.04,0,LWC V2.00 B727,2013-09-15 08:11:00,
2013-09-15 02:16:00,50.6,48.1,30.15,ESE,120,1.0,1.0,91,0.07,,,0.04,0,LWC V2.00 B727,2013-09-15 08:16:00,
2013-09-15 02:21:00,50.7,48.5,30.15,ESE,119,1.0,2.0,92,0.06,,,0.05,0,LWC V2.00 B727,2013-09-15 08:21:00,
2013-09-15 02:26:00,50.8,48.6,30.15,ESE,119,1.0,3.0,92,0.11,,,0.05,0,LWC V2.00 B727,2013-09-15 08:26:00,
2013-09-15 02:31:00,50.7,48.5,30.15,North,0,1.0,3.0,92,0.23,,,0.07,0,LWC V2.00 B727,2013-09-15 08:31:00,
2013-09-15 02:36:00,50.6,48.1,30.15,North,5,3.0,3.0,91,0.24,,,0.09,0,LWC V2.00 B727,2013-09-15 08:36:00,
2013-09-15 02:41:00,50.5,48.0,30.15,North,0,1.0,1.0,91,0.21,,,0.11,0,LWC V2.00 B727,2013-09-15 08:41:00,
2013-09-15 02:46:00,50.3,47.8,30.15,NE,46,0.0,4.0,91,0.11,,,0.12,0,LWC V2.00 B727,2013-09-15 08:46:00,
2013-09-15 02:51:00,50.2,48.0,30.15,NE,49,2.0,3.0,92,0.11,,,0.13,0,LWC V2.00 B727,2013-09-15 08:51:00,
2013-09-15 02:56:00,50.1,47.6,30.14,NE,48,3.0,4.0,91,0.10,,,0.13,0,LWC V2.00 B727,2013-09-15 08:56:00,
2013-09-15 03:01:00,50.1,47.6,30.14,NE,49,2.0,2.0,91,0.08,,,0.14,0,LWC V2.00 B727,2013-09-15 09:01:00,
2013-09-15 03:06:00,50.0,47.5,30.14,NE,49,4.0,4.0,91,0.07,,,0.15,0,LWC V2.00 B727,2013-09-15 09:06:00,
2013-09-15 03:11:00,49.6,47.1,30.14,East,86,5.0,6.0,91,0.07,,,0.15,0,LWC V2.00 B727,2013-09-15 09:11:00,
2013-09-15 03:16:00,49.2,46.7,30.14,SE,134,4.0,4.0,91,0.06,,,0.15,0,LWC V2.00 B727,2013-09-15 09:16:00,
2013-09-15 03:21:00,49.0,46.2,30.14,ESE,119,0.0,4.0,90,0.04,,,0.16,0,LWC V2.00 B727,2013-09-15 09:21:00,
2013-09-15 03:26:00,48.8,46.0,30.14,ESE,107,1.0,4.0,90,0.04,,,0.16,0,LWC V2.00 B727,2013-09-15 09:26:00,
2013-09-15 03:31:00,48.7,45.9,30.14,SE,131,2.0,7.0,90,0.04,,,0.16,0,LWC V2.00 B727,2013-09-15 09:31:00,
2013-09-15 03:36:00,48.6,45.8,30.14,East,96,2.0,2.0,90,0.04,,,0.16,0,LWC V2.00 B727,2013-09-15 09:36:00,
2013-09-15 03:41:00,48.5,45.7,30.14,East,96,5.0,5.0,90,0.00,,,0.16,0,LWC V2.00 B727,2013-09-15 09:41:00,
2013-09-15 03:46:00,48.3,45.5,30.14,East,97,2.0,3.0,90,0.00,,,0.16,0,LWC V2.00 B727,2013-09-15 09:46:00,
2013-09-15 03:51:00,48.2,45.1,30.14,ESE,117,2.0,7.0,89,0.00,,,0.16,0,LWC V2.00 B727,2013-09-15 09:51:00,
2013-09-15 03:56:00,48.2,45.1,30.15,ESE,112,5.0,7.0,89,0.00,,,0.16,0,LWC V2.00 B727,2013-09-15 09:56:00,
2013-09-15 04:01:00,48.1,45.0,30.15,ESE,109,1.0,2.0,89,0.00,,,0.16,0,LWC V2.00 B727,2013-09-15 10:01:00,
2013-09-15 04:06:00,48.1,45.0,30.15,East,98,0.0,0.0,89,0.00,,,0.16,0,LWC V2.00 B727,2013-09-15 10:06:00,
2013-09-15 04:11:00,48.0,44.9,30.15,East,98,0.0,3.0,89,0.00,,,0.16,0,LWC V2.00 B727,2013-09-15 10:11:00,
2013-09-15 04:16:00,47.9,44.8,30.15,East,98,0.0,2.0,89,0.00,,,0.16,0,LWC V2.00 B727,2013-09-15 10:16:00,
2013-09-15 04:21:00,47.8,44.7,30.15,East,98,0.0,0.0,89,0.00,,,0.16,0,LWC V2.00 B727,2013-09-15 10:21:00,
2013-09-15 04:26:00,47.6,44.5,30.16,East,98,0.0,2.0,89,0.00,,,0.16,0,LWC V2.00 B727,2013-09-15 10:26:00,
2013-09-15 04:31:00,47.5,44.1,30.16,East,98,0.0,2.0,88,0.00,,,0.16,0,LWC V2.00 B727,2013-09-15 10:31:00,
2013-09-15 04:36:00,47.4,44.0,30.16,East,98,0.0,2.0,88,0.00,,,0.16,0,LWC V2.00 B727,2013-09-15 10:36:00,
2013-09-15 04:41:00,47.3,43.9,30.17,East,98,0.0,0.0,88,0.00,,,0.16,0,LWC V2.00 B727,2013-09-15 10:41:00,
2013-09-15 04:46:00,47.3,44.2,30.17,East,98,0.0,0.0,89,0.00,,,0.16,0,LWC V2.00 B727,2013-09-15 10:46:00,
2013-09-15 04:51:00,47.3,44.2,30.17,East,98,0.0,0.0,89,0.00,,,0.16,0,LWC V2.00 B727,2013-09-15 10:51:00,
2013-09-15 04:56:00,47.2,44.1,30.17,East,98,0.0,0.0,89,0.00,,,0.16,0,LWC V2.00 B727,2013-09-15 10:56:00,
2013-09-15 05:01:00,47.2,44.1,30.18,East,98,0.0,1.0,89,0.00,,,0.16,0,LWC V2.00 B727,2013-09-15 11:01:00,
2013-09-15 05:06:00,47.2,44.4,30.18,East,98,1.0,5.0,90,0.00,,,0.16,0,LWC V2.00 B727,2013-09-15 11:06:00,
2013-09-15 05:11:00,47.3,44.5,30.18,SE,136,3.0,7.0,90,0.00,,,0.16,0,LWC V2.00 B727,2013-09-15 11:11:00,
2013-09-15 05:16:00,47.4,44.6,30.18,SE,133,3.0,4.0,90,0.00,,,0.16,0,LWC V2.00 B727,2013-09-15 11:16:00,
2013-09-15 05:21:00,47.5,44.7,30.18,SE,133,1.0,4.0,90,0.00,,,0.16,0,LWC V2.00 B727,2013-09-15 11:21:00,
2013-09-15 05:26:00,47.5,44.7,30.18,SE,133,2.0,2.0,90,0.00,,,0.16,0,LWC V2.00 B727,2013-09-15 11:26:00,
2013-09-15 05:31:00,47.6,44.8,30.18,SE,133,0.0,0.0,90,0.00,,,0.16,0,LWC V2.00 B727,2013-09-15 11:31:00,
2013-09-15 05:36:00,47.6,44.8,30.18,SE,128,2.0,3.0,90,0.00,,,0.16,0,LWC V2.00 B727,2013-09-15 11:36:00,
2013-09-15 05:41:00,47.6,44.8,30.18,SE,126,1.0,2.0,90,0.00,,,0.16,0,LWC V2.00 B727,2013-09-15 11:41:00,
2013-09-15 05:46:00,47.6,44.8,30.18,SE,126,0.0,2.0,90,0.00,,,0.16,0,LWC V2.00 B727,2013-09-15 11:46:00,
2013-09-15 05:51:00,47.5,44.7,30.19,SE,126,0.0,0.0,90,0.00,,,0.16,0,LWC V2.00 B727,2013-09-15 11:51:00,
2013-09-15 05:56:00,47.4,44.6,30.19,SE,126,0.0,0.0,90,0.00,,,0.16,0,LWC V2.00 B727,2013-09-15 11:56:00,
2013-09-15 06:01:00,47.2,44.4,30.19,SE,126,0.0,1.0,90,0.00,,,0.16,0,LWC V2.00 B727,2013-09-15 12:01:00,
2013-09-15 06:06:00,47.1,44.3,30.20,SE,126,0.0,2.0,90,0.00,,,0.16,0,LWC V2.00 B727,2013-09-15 12:06:00,
2013-09-15 06:11:00,47.0,44.2,30.20,SE,126,2.0,4.0,90,0.00,,,0.16,0,LWC V2.00 B727,2013-09-15 12:11:00,
2013-09-15 06:16:00,46.9,44.1,30.20,SE,126,1.0,3.0,90,0.00,,,0.16,0,LWC V2.00 B727,2013-09-15 12:16:00,
2013-09-15 06:21:00,46.8,44.0,30.20,SE,126,3.0,3.0,90,0.00,,,0.16,0,LWC V2.00 B727,2013-09-15 12:21:00,
2013-09-15 06:26:00,46.8,44.0,30.21,SE,126,2.0,3.0,90,0.00,,,0.16,0,LWC V2.00 B727,2013-09-15 12:26:00,
2013-09-15 06:31:00,46.8,44.0,30.21,SE,126,3.0,4.0,90,0.00,,,0.16,0,LWC V2.00 B727,2013-09-15 12:31:00,
2013-09-15 06:36:00,46.7,43.9,30.21,SE,126,2.0,4.0,90,0.00,,,0.16,0,LWC V2.00 B727,2013-09-15 12:36:00,
2013-09-15 06:41:00,46.7,43.9,30.21,SE,126,3.0,4.0,90,0.00,,,0.16,0,LWC V2.00 B727,2013-09-15 12:41:00,
2013-09-15 06:46:00,46.7,43.9,30.21,SE,126,1.0,3.0,90,0.00,,,0.16,0,LWC V2.00 B727,2013-09-15 12:46:00,
2013-09-15 06:51:00,46.6,43.8,30.21,SE,126,0.0,3.0,90,0.00,,,0.16,0,LWC V2.00 B727,2013-09-15 12:51:00,
2013-09-15 06:56:00,46.6,44.1,30.21,SE,126,1.0,2.0,91,0.00,,,0.16,9,LWC V2.00 B727,2013-09-15 12:56:00,
2013-09-15 07:01:00,46.5,44.0,30.22,SE,126,1.0,3.0,91,0.00,,,0.16,11,LWC V2.00 B727,2013-09-15 13:01:00,
2013-09-15 07:06:00,46.5,44.0,30.22,SE,126,0.0,1.0,91,0.00,,,0.16,14,LWC V2.00 B727,2013-09-15 13:06:00,
2013-09-15 07:11:00,46.5,44.0,30.22,SE,126,0.0,1.0,91,0.00,,,0.16,18,LWC V2.00 B727,2013-09-15 13:11:00,
2013-09-15 07:16:00,46.5,44.0,30.22,SE,126,1.0,2.0,91,0.00,,,0.16,23,LWC V2.00 B727,2013-09-15 13:16:00,
2013-09-15 07:21:00,46.5,44.0,30.22,SE,126,1.0,2.0,91,0.00,,,0.16,33,LWC V2.00 B727,2013-09-15 13:21:00,
2013-09-15 07:26:00,46.5,44.0,30.22,SE,126,0.0,3.0,91,0.00,,,0.16,37,LWC V2.00 B727,2013-09-15 13:26:00,
2013-09-15 07:31:00,46.5,44.0,30.22,SE,126,1.0,2.0,91,0.00,,,0.16,46,LWC V2.00 B727,2013-09-15 13:31:00,
2013-09-15 07:36:00,46.7,44.2,30.22,SE,126,1.0,2.0,91,0.00,,,0.16,60,LWC V2.00 B727,2013-09-15 13:36:00,
2013-09-15 07:41:00,46.8,44.3,30.23,SE,126,4.0,4.0,91,0.00,,,0.16,72,LWC V2.00 B727,2013-09-15 13:41:00,
2013-09-15 07:46:00,47.0,44.8,30.23,SE,127,2.0,4.0,92,0.00,,,0.16,74,LWC V2.00 B727,2013-09-15 13:46:00,
2013-09-15 07:51:00,47.3,45.1,30.23,SE,127,2.0,2.0,92,0.00,,,0.16,72,LWC V2.00 B727,2013-09-15 13:51:00,
2013-09-15 07:56:00,47.6,45.4,30.22,SE,126,0.0,3.0,92,0.00,,,0.16,74,LWC V2.00 B727,2013-09-15 13:56:00,
2013-09-15 08:01:00,47.8,45.6,30.23,SE,127,0.0,0.0,92,0.00,,,0.16,60,LWC V2.00 B727,2013-09-15 14:01:00,
2013-09-15 08:06:00,48.0,45.8,30.23,SE,127,0.0,0.0,92,0.00,,,0.16,60,LWC V2.00 B727,2013-09-15 14:06:00,
2013-09-15 08:11:00,48.1,45.9,30.23,SE,127,0.0,0.0,92,0.00,,,0.16,83,LWC V2.00 B727,2013-09-15 14:11:00,
2013-09-15 08:16:00,48.5,46.3,30.22,SE,126,2.0,2.0,92,0.00,,,0.16,299,LWC V2.00 B727,2013-09-15 14:16:00,
2013-09-15 08:21:00,49.1,46.9,30.22,SE,127,3.0,4.0,92,0.00,,,0.16,320,LWC V2.00 B727,2013-09-15 14:21:00,
2013-09-15 08:26:00,49.8,47.9,30.22,SE,127,0.0,2.0,93,0.00,,,0.16,306,LWC V2.00 B727,2013-09-15 14:26:00,
2013-09-15 08:31:00,50.5,48.6,30.23,ESE,107,1.0,4.0,93,0.00,,,0.16,181,LWC V2.00 B727,2013-09-15 14:31:00,
2013-09-15 08:36:00,51.2,49.0,30.23,ESE,106,3.0,3.0,92,0.00,,,0.16,195,LWC V2.00 B727,2013-09-15 14:36:00,
2013-09-15 08:41:00,51.7,48.9,30.23,East,96,2.0,3.0,90,0.00,,,0.16,258,LWC V2.00 B727,2013-09-15 14:41:00,
2013-09-15 08:46:00,52.3,48.9,30.22,East,92,2.0,5.0,88,0.00,,,0.16,341,LWC V2.00 B727,2013-09-15 14:46:00,
2013-09-15 08:51:00,53.0,49.2,30.22,East,94,3.0,5.0,87,0.00,,,0.16,452,LWC V2.00 B727,2013-09-15 14:51:00,
2013-09-15 08:56:00,53.8,49.7,30.23,East,94,2.0,5.0,86,0.00,,,0.16,323,LWC V2.00 B727,2013-09-15 14:56:00,
2013-09-15 09:01:00,54.3,49.2,30.23,East,94,3.0,3.0,83,0.00,,,0.16,188,LWC V2.00 B727,2013-09-15 15:01:00,
2013-09-15 09:06:00,54.7,48.7,30.23,East,94,0.0,1.0,80,0.00,,,0.16,193,LWC V2.00 B727,2013-09-15 15:06:00,
2013-09-15 09:11:00,54.9,48.8,30.23,East,94,0.0,1.0,80,0.00,,,0.16,172,LWC V2.00 B727,2013-09-15 15:11:00,
2013-09-15 09:16:00,55.1,48.4,30.23,East,94,0.0,2.0,78,0.00,,,0.16,193,LWC V2.00 B727,2013-09-15 15:16:00,
2013-09-15 09:21:00,55.3,48.9,30.23,East,94,0.0,2.0,79,0.00,,,0.16,255,LWC V2.00 B727,2013-09-15 15:21:00,
2013-09-15 09:26:00,55.5,48.8,30.23,East,94,0.0,0.0,78,0.00,,,0.16,260,LWC V2.00 B727,2013-09-15 15:26:00,
2013-09-15 09:27:00,55.5,48.8,30.23,East,94,0.0,0.0,78,0.00,,,0.16,260,LWC V2.00 B727,2013-09-15 15:27:00,
2013-09-15 09:32:00,55.8,49.0,30.23,East,92,2.0,2.0,78,0.00,,,0.16,292,LWC V2.00 B727,2013-09-15 15:32:00,
2013-09-15 09:37:00,56.0,48.5,30.23,East,92,0.0,5.0,76,0.00,,,0.16,279,LWC V2.00 B727,2013-09-15 15:37:00,
2013-09-15 09:42:00,56.3,48.5,30.23,East,82,1.0,5.0,75,0.00,,,0.16,257,LWC V2.00 B727,2013-09-15 15:42:00,
2013-09-15 09:47:00,56.6,48.8,30.23,East,82,0.0,1.0,75,0.00,,,0.16,450,LWC V2.00 B727,2013-09-15 15:47:00,
2013-09-15 09:52:00,57.1,50.0,30.23,East,81,2.0,5.0,77,0.00,,,0.16,181,LWC V2.00 B727,2013-09-15 15:52:00,
2013-09-15 09:57:00,57.5,50.0,30.23,ENE,71,0.0,2.0,76,0.00,,,0.16,656,LWC V2.00 B727,2013-09-15 15:57:00,
2013-09-15 10:02:00,58.0,50.1,30.23,NNE,28,0.0,1.0,75,0.00,,,0.16,406,LWC V2.00 B727,2013-09-15 16:02:00,
2013-09-15 10:07:00,58.5,50.2,30.23,NNE,28,0.0,0.0,74,0.00,,,0.16,367,LWC V2.00 B727,2013-09-15 16:07:00,
2013-09-15 10:12:00,59.0,51.1,30.23,NNE,28,0.0,1.0,75,0.00,,,0.16,243,LWC V2.00 B727,2013-09-15 16:12:00,
2013-09-15 10:17:00,59.1,51.2,30.23,NNE,28,0.0,1.0,75,0.00,,,0.16,290,LWC V2.00 B727,2013-09-15 16:17:00,
2013-09-15 10:22:00,59.4,50.7,30.23,NNE,28,1.0,1.0,73,0.00,,,0.16,316,LWC V2.00 B727,2013-09-15 16:22:00,
2013-09-15 10:27:00,59.5,50.1,30.23,NNE,28,0.0,0.0,71,0.00,,,0.16,336,LWC V2.00 B727,2013-09-15 16:27:00,
2013-09-15 10:32:00,59.7,51.0,30.24,NNE,27,1.0,3.0,73,0.00,,,0.16,645,LWC V2.00 B727,2013-09-15 16:32:00,
2013-09-15 10:37:00,60.0,50.9,30.24,NNE,26,1.0,1.0,72,0.00,,,0.16,814,LWC V2.00 B727,2013-09-15 16:37:00,
2013-09-15 10:42:00,60.4,51.7,30.24,NNE,26,0.0,1.0,73,0.00,,,0.16,814,LWC V2.00 B727,2013-09-15 16:42:00,
2013-09-15 10:47:00,61.0,50.0,30.23,North,355,0.0,3.0,67,0.00,,,0.16,921,LWC V2.00 B727,2013-09-15 16:47:00,
2013-09-15 10:52:00,61.5,51.6,30.24,North,0,4.0,5.0,70,0.00,,,0.16,397,LWC V2.00 B727,2013-09-15 16:52:00,
2013-09-15 10:57:00,61.9,50.8,30.24,NW,318,3.0,3.0,67,0.00,,,0.16,413,LWC V2.00 B727,2013-09-15 16:57:00,
2013-09-15 11:02:00,62.3,51.6,30.24,NW,316,5.0,5.0,68,0.00,,,0.16,849,LWC V2.00 B727,2013-09-15 17:02:00,
2013-09-15 11:07:00,62.5,51.0,30.23,WNW,298,4.0,8.0,66,0.00,,,0.16,823,LWC V2.00 B727,2013-09-15 17:07:00,
2013-09-15 11:12:00,63.1,51.6,30.23,WNW,294,1.0,6.0,66,0.00,,,0.16,937,LWC V2.00 B727,2013-09-15 17:12:00,
2013-09-15 11:17:00,64.0,53.2,30.23,NNW,329,1.0,5.0,68,0.00,,,0.16,993,LWC V2.00 B727,2013-09-15 17:17:00,
2013-09-15 11:22:00,65.0,53.8,30.23,WNW,294,3.0,5.0,67,0.00,,,0.16,1023,LWC V2.00 B727,2013-09-15 17:22:00,
2013-09-15 11:27:00,65.8,54.1,30.23,West,260,3.0,4.0,66,0.00,,,0.16,944,LWC V2.00 B727,2013-09-15 17:27:00,
2013-09-15 11:32:00,66.4,53.8,30.23,WNW,285,0.0,4.0,64,0.00,,,0.16,907,LWC V2.00 B727,2013-09-15 17:32:00,
2013-09-15 11:37:00,67.1,54.1,30.22,SSW,213,3.0,6.0,63,0.00,,,0.16,900,LWC V2.00 B727,2013-09-15 17:37:00,
2013-09-15 11:42:00,67.3,55.1,30.22,SW,217,6.0,7.0,65,0.00,,,0.16,812,LWC V2.00 B727,2013-09-15 17:42:00,
2013-09-15 11:47:00,67.2,53.7,30.22,SW,225,6.0,7.0,62,0.00,,,0.16,800,LWC V2.00 B727,2013-09-15 17:47:00,
2013-09-15 11:52:00,66.8,52.9,30.22,SSW,213,0.0,1.0,61,0.00,,,0.16,355,LWC V2.00 B727,2013-09-15 17:52:00,
2013-09-15 11:57:00,66.5,53.9,30.22,SSW,213,0.0,1.0,64,0.00,,,0.16,431,LWC V2.00 B727,2013-09-15 17:57:00,
2013-09-15 12:02:00,66.2,53.2,30.21,West,280,4.0,6.0,63,0.00,,,0.16,483,LWC V2.00 B727,2013-09-15 18:02:00,
2013-09-15 12:07:00,65.9,53.4,30.21,WNW,299,6.0,6.0,64,0.00,,,0.16,666,LWC V2.00 B727,2013-09-15 18:07:00,
2013-09-15 12:12:00,65.9,53.4,30.21,West,273,5.0,5.0,64,0.00,,,0.16,571,LWC V2.00 B727,2013-09-15 18:12:00,
2013-09-15 12:17:00,65.9,53.4,30.21,SSW,195,5.0,6.0,64,0.00,,,0.16,698,LWC V2.00 B727,2013-09-15 18:17:00,
2013-09-15 12:22:00,66.2,52.8,30.21,SW,229,0.0,5.0,62,0.00,,,0.16,454,LWC V2.00 B727,2013-09-15 18:22:00,
2013-09-15 12:27:00,66.3,51.5,30.21,WNW,284,2.0,6.0,59,0.00,,,0.16,680,LWC V2.00 B727,2013-09-15 18:27:00,
2013-09-15 12:32:00,66.5,52.6,30.21,WSW,244,4.0,6.0,61,0.00,,,0.16,554,LWC V2.00 B727,2013-09-15 18:32:00,
2013-09-15 12:37:00,66.8,55.1,30.21,SSW,200,3.0,4.0,66,0.00,,,0.16,473,LWC V2.00 B727,2013-09-15 18:37:00,
2013-09-15 12:42:00,67.0,52.6,30.21,West,273,5.0,5.0,60,0.00,,,0.16,628,LWC V2.00 B727,2013-09-15 18:42:00,
2013-09-15 12:47:00,66.8,52.9,30.20,SSW,195,3.0,5.0,61,0.00,,,0.16,332,LWC V2.00 B727,2013-09-15 18:47:00,
2013-09-15 12:52:00,66.5,53.5,30.20,WSW,239,0.0,6.0,63,0.00,,,0.16,624,LWC V2.00 B727,2013-09-15 18:52:00,
2013-09-15 12:57:00,66.4,52.5,30.20,WNW,286,0.0,0.0,61,0.00,,,0.16,396,LWC V2.00 B727,2013-09-15 18:57:00,
2013-09-15 13:02:00,66.3,52.0,30.20,SSW,212,2.0,4.0,60,0.00,,,0.16,715,LWC V2.00 B727,2013-09-15 19:02:00,
2013-09-15 13:07:00,66.8,51.1,30.20,West,265,2.0,4.0,57,0.00,,,0.16,828,LWC V2.00 B727,2013-09-15 19:07:00,
2013-09-15 13:12:00,67.5,52.7,30.20,SSW,200,0.0,5.0,59,0.00,,,0.16,935,LWC V2.00 B727,2013-09-15 19:12:00,
2013-09-15 13:17:00,67.7,50.4,30.20,SSW,213,1.0,5.0,54,0.00,,,0.16,408,LWC V2.00 B727,2013-09-15 19:17:00,
2013-09-15 13:18:00,67.7,50.9,30.20,SSW,213,0.0,3.0,55,0.00,,,0.16,413,LWC V2.00 B727,2013-09-15 19:18:00,
2013-09-15 13:23:00,67.5,50.8,30.19,NW,304,3.0,5.0,55,0.00,,,0.16,452,LWC V2.00 B727,2013-09-15 19:23:00,
2013-09-15 13:28:00,67.4,49.7,30.19,West,263,0.0,4.0,53,0.00,,,0.16,366,LWC V2.00 B727,2013-09-15 19:28:00,
2013-09-15 13:33:00,67.2,48.5,30.19,SW,236,0.0,1.0,51,0.00,,,0.16,501,LWC V2.00 B727,2013-09-15 19:33:00,
2013-09-15 13:38:00,67.3,50.1,30.19,NW,313,4.0,5.0,54,0.00,,,0.16,529,LWC V2.00 B727,2013-09-15 19:38:00,
2013-09-15 13:43:00,67.6,51.3,30.19,WNW,294,4.0,5.0,56,0.00,,,0.16,902,LWC V2.00 B727,2013-09-15 19:43:00,
2013-09-15 13:48:00,67.9,49.6,30.19,NNW,343,3.0,5.0,52,0.00,,,0.16,932,LWC V2.00 B727,2013-09-15 19:48:00,
2013-09-15 13:53:00,68.0,49.7,30.19,WNW,290,4.0,5.0,52,0.00,,,0.16,946,LWC V2.00 B727,2013-09-15 19:53:00,
2013-09-15 13:58:00,68.6,51.3,30.18,SW,226,4.0,5.0,54,0.00,,,0.16,652,LWC V2.00 B727,2013-09-15 19:58:00,
2013-09-15 14:03:00,68.8,49.4,30.18,WNW,285,0.0,7.0,50,0.00,,,0.16,979,LWC V2.00 B727,2013-09-15 20:03:00,
2013-09-15 14:08:00,69.0,50.1,30.18,WNW,288,2.0,7.0,51,0.00,,,0.16,708,LWC V2.00 B727,2013-09-15 20:08:00,
2013-09-15 14:13:00,69.0,49.0,30.18,WNW,294,2.0,2.0,49,0.00,,,0.16,773,LWC V2.00 B727,2013-09-15 20:13:00,
2013-09-15 14:18:00,69.7,51.8,30.18,SW,218,8.0,8.0,53,0.00,,,0.16,976,LWC V2.00 B727,2013-09-15 20:18:00,
2013-09-15 14:23:00,70.3,49.7,30.17,SW,227,2.0,5.0,48,0.00,,,0.16,288,LWC V2.00 B727,2013-09-15 20:23:00,
2013-09-15 14:28:00,70.0,50.5,30.17,SSW,212,1.0,4.0,50,0.00,,,0.16,334,LWC V2.00 B727,2013-09-15 20:28:00,
2013-09-15 14:33:00,70.0,51.6,30.17,WNW,282,4.0,8.0,52,0.00,,,0.16,937,LWC V2.00 B727,2013-09-15 20:33:00,
2013-09-15 14:38:00,69.8,52.4,30.18,SSW,194,0.0,3.0,54,0.00,,,0.16,951,LWC V2.00 B727,2013-09-15 20:38:00,
2013-09-15 14:43:00,69.8,52.4,30.18,SSW,211,4.0,4.0,54,0.00,,,0.16,951,LWC V2.00 B727,2013-09-15 20:43:00,
2013-09-15 14:48:00,69.6,50.7,30.18,WNW,293,2.0,8.0,51,0.00,,,0.16,446,LWC V2.00 B727,2013-09-15 20:48:00,
2013-09-15 14:53:00,68.8,49.9,30.18,WNW,295,4.0,6.0,51,0.00,,,0.16,239,LWC V2.00 B727,2013-09-15 20:53:00,
2013-09-15 14:58:00,67.6,50.8,30.18,WSW,258,2.0,6.0,55,0.00,,,0.16,339,LWC V2.00 B727,2013-09-15 20:58:00,
2013-09-15 15:03:00,67.1,51.8,30.18,WNW,301,7.0,9.0,58,0.00,,,0.16,378,LWC V2.00 B727,2013-09-15 21:03:00,
2013-09-15 15:08:00,67.1,51.3,30.18,West,266,5.0,10.0,57,0.00,,,0.16,527,LWC V2.00 B727,2013-09-15 21:08:00,
2013-09-15 15:13:00,67.2,51.4,30.17,West,260,4.0,6.0,57,0.00,,,0.16,418,LWC V2.00 B727,2013-09-15 21:13:00,
2013-09-15 15:18:00,67.0,52.2,30.17,WSW,252,5.0,6.0,59,0.00,,,0.16,888,LWC V2.00 B727,2013-09-15 21:18:00,
2013-09-15 15:23:00,67.8,52.0,30.17,West,275,3.0,10.0,57,0.00,,,0.16,782,LWC V2.00 B727,2013-09-15 21:23:00,
2013-09-15 15:28:00,68.1,51.8,30.17,WNW,292,7.0,15.0,56,0.00,,,0.16,612,LWC V2.00 B727,2013-09-15 21:28:00,
2013-09-15 15:33:00,68.1,51.8,30.17,West,279,4.0,9.0,56,0.00,,,0.16,694,LWC V2.00 B727,2013-09-15 21:33:00,
2013-09-15 15:38:00,67.8,50.5,30.17,WNW,293,3.0,6.0,54,0.00,,,0.16,355,LWC V2.00 B727,2013-09-15 21:38:00,
2013-09-15 15:43:00,67.2,49.0,30.17,NW,318,5.0,8.0,52,0.00,,,0.16,285,LWC V2.00 B727,2013-09-15 21:43:00,
2013-09-15 15:48:00,66.6,50.4,30.17,WNW,292,0.0,4.0,56,0.00,,,0.16,302,LWC V2.00 B727,2013-09-15 21:48:00,
2013-09-15 15:53:00,66.3,50.1,30.17,NE,44,0.0,8.0,56,0.00,,,0.16,308,LWC V2.00 B727,2013-09-15 21:53:00,
2013-09-15 15:58:00,65.8,50.6,30.17,ENE,67,4.0,10.0,58,0.00,,,0.16,338,LWC V2.00 B727,2013-09-15 21:58:00,
2013-09-15 16:03:00,64.9,50.2,30.17,East,101,7.0,11.0,59,0.00,,,0.16,807,LWC V2.00 B727,2013-09-15 22:03:00,
2013-09-15 16:08:00,63.8,49.6,30.17,East,90,8.0,10.0,60,0.00,,,0.16,206,LWC V2.00 B727,2013-09-15 22:08:00,
2013-09-15 16:13:00,62.4,48.8,30.17,East,101,3.0,9.0,61,0.00,,,0.16,151,LWC V2.00 B727,2013-09-15 22:13:00,
2013-09-15 16:18:00,61.5,47.9,30.17,SE,143,9.0,14.0,61,0.00,,,0.16,178,LWC V2.00 B727,2013-09-15 22:18:00,
2013-09-15 16:23:00,60.6,47.9,30.18,East,90,7.0,12.0,63,0.00,,,0.16,239,LWC V2.00 B727,2013-09-15 22:23:00,
2013-09-15 16:28:00,59.9,47.7,30.18,East,96,13.0,13.0,64,0.00,,,0.16,246,LWC V2.00 B727,2013-09-15 22:28:00,
2013-09-15 16:33:00,59.4,47.2,30.18,ESE,122,7.0,12.0,64,0.00,,,0.16,237,LWC V2.00 B727,2013-09-15 22:33:00,
2013-09-15 16:38:00,59.0,47.2,30.17,East,98,7.0,10.0,65,0.00,,,0.16,251,LWC V2.00 B727,2013-09-15 22:38:00,
2013-09-15 16:43:00,59.0,47.7,30.18,ESE,102,9.0,13.0,66,0.00,,,0.16,227,LWC V2.00 B727,2013-09-15 22:43:00,
2013-09-15 16:48:00,59.0,47.7,30.18,ESE,103,8.0,10.0,66,0.00,,,0.16,206,LWC V2.00 B727,2013-09-15 22:48:00,
2013-09-15 16:53:00,58.8,48.3,30.18,ESE,103,7.0,10.0,68,0.00,,,0.16,200,LWC V2.00 B727,2013-09-15 22:53:00,
2013-09-15 16:58:00,59.0,48.1,30.17,ESE,102,5.0,8.0,67,0.00,,,0.16,192,LWC V2.00 B727,2013-09-15 22:58:00,
2013-09-15 17:03:00,59.0,49.2,30.17,ESE,111,5.0,8.0,70,0.00,,,0.16,462,LWC V2.00 B727,2013-09-15 23:03:00,
2013-09-15 17:08:00,59.6,49.4,30.17,SE,127,6.0,9.0,69,0.00,,,0.16,487,LWC V2.00 B727,2013-09-15 23:08:00,
2013-09-15 17:13:00,60.5,49.9,30.17,East,82,6.0,6.0,68,0.00,,,0.16,388,LWC V2.00 B727,2013-09-15 23:13:00,
2013-09-15 17:18:00,61.2,50.5,30.17,East,85,5.0,6.0,68,0.00,,,0.16,388,LWC V2.00 B727,2013-09-15 23:18:00,
2013-09-15 17:23:00,61.8,50.3,30.18,East,88,2.0,6.0,66,0.00,,,0.16,385,LWC V2.00 B727,2013-09-15 23:23:00,
2013-09-15 17:28:00,62.3,50.4,30.18,East,91,1.0,5.0,65,0.00,,,0.16,190,LWC V2.00 B727,2013-09-15 23:28:00,
2013-09-15 17:33:00,62.5,50.2,30.18,East,95,6.0,7.0,64,0.00,,,0.16,346,LWC V2.00 B727,2013-09-15 23:33:00,
2013-09-15 17:38:00,62.6,50.7,30.18,East,96,1.0,6.0,65,0.00,,,0.16,355,LWC V2.00 B727,2013-09-15 23:38:00,
2013-09-15 17:43:00,62.8,50.4,30.18,ESE,117,3.0,5.0,64,0.00,,,0.16,352,LWC V2.00 B727,2013-09-15 23:43:00,
2013-09-15 17:48:00,63.1,50.3,30.18,ESE,105,4.0,7.0,63,0.00,,,0.16,271,LWC V2.00 B727,2013-09-15 23:48:00,
2013-09-15 17:53:00,63.1,51.1,30.18,ENE,75,4.0,5.0,65,0.00,,,0.16,54,LWC V2.00 B727,2013-09-15 23:53:00,
2013-09-15 17:58:00,62.7,50.8,30.18,East,79,0.0,1.0,65,0.00,,,0.16,47,LWC V2.00 B727,2013-09-15 23:58:00,
2013-09-15 18:03:00,62.3,50.8,30.18,East,80,0.0,2.0,66,0.00,,,0.16,47,LWC V2.00 B727,2013-09-16 00:03:00,
2013-09-15 18:08:00,61.9,50.8,30.18,East,80,0.0,1.0,67,0.00,,,0.16,65,LWC V2.00 B727,2013-09-16 00:08:00,
2013-09-15 18:13:00,61.5,50.8,30.18,East,80,0.0,3.0,68,0.00,,,0.16,185,LWC V2.00 B727,2013-09-16 00:13:00,
2013-09-15 18:18:00,61.4,51.1,30.19,East,82,3.0,5.0,69,0.00,,,0.16,171,LWC V2.00 B727,2013-09-16 00:18:00,
2013-09-15 18:23:00,61.4,50.7,30.19,East,82,2.0,3.0,68,0.00,,,0.16,104,LWC V2.00 B727,2013-09-16 00:23:00,
2013-09-15 18:28:00,61.4,51.1,30.18,East,92,2.0,3.0,69,0.00,,,0.16,63,LWC V2.00 B727,2013-09-16 00:28:00,
2013-09-15 18:33:00,61.2,50.5,30.18,East,92,2.0,3.0,68,0.00,,,0.16,42,LWC V2.00 B727,2013-09-16 00:33:00,
2013-09-15 18:38:00,60.9,50.3,30.19,East,94,3.0,5.0,68,0.00,,,0.16,33,LWC V2.00 B727,2013-09-16 00:38:00,
2013-09-15 18:43:00,60.3,49.3,30.19,ESE,107,4.0,5.0,67,0.00,,,0.16,26,LWC V2.00 B727,2013-09-16 00:43:00,
2013-09-15 18:48:00,59.7,49.1,30.19,ESE,106,0.0,3.0,68,0.00,,,0.16,18,LWC V2.00 B727,2013-09-16 00:48:00,
2013-09-15 18:53:00,59.0,48.5,30.19,ESE,106,1.0,3.0,68,0.00,,,0.16,11,LWC V2.00 B727,2013-09-16 00:53:00,
2013-09-15 18:58:00,58.8,48.7,30.20,ESE,106,2.0,4.0,69,0.00,,,0.16,7,LWC V2.00 B727,2013-09-16 00:58:00,
2013-09-15 19:03:00,58.2,48.5,30.20,ESE,107,3.0,4.0,70,0.00,,,0.16,0,LWC V2.00 B727,2013-09-16 01:03:00,
2013-09-15 19:08:00,57.6,47.9,30.20,ESE,107,3.0,3.0,70,0.00,,,0.16,0,LWC V2.00 B727,2013-09-16 01:08:00,
2013-09-15 19:13:00,57.1,47.8,30.20,ESE,107,2.0,2.0,71,0.00,,,0.16,0,LWC V2.00 B727,2013-09-16 01:13:00,
2013-09-15 19:18:00,56.6,47.7,30.20,ESE,103,0.0,3.0,72,0.00,,,0.16,0,LWC V2.00 B727,2013-09-16 01:18:00,
2013-09-15 19:23:00,56.2,48.0,30.20,East,95,3.0,5.0,74,0.00,,,0.16,0,LWC V2.00 B727,2013-09-16 01:23:00,
2013-09-15 19:28:00,55.8,47.6,30.20,East,90,6.0,8.0,74,0.00,,,0.16,0,LWC V2.00 B727,2013-09-16 01:28:00,
2013-09-15 19:33:00,55.5,47.7,30.20,ESE,102,4.0,7.0,75,0.00,,,0.16,0,LWC V2.00 B727,2013-09-16 01:33:00,
2013-09-15 19:38:00,55.4,48.3,30.21,ESE,107,3.0,4.0,77,0.00,,,0.16,0,LWC V2.00 B727,2013-09-16 01:38:00,
2013-09-15 19:43:00,55.3,48.2,30.21,ESE,106,2.0,5.0,77,0.00,,,0.16,0,LWC V2.00 B727,2013-09-16 01:43:00,
2013-09-15 19:48:00,55.3,47.9,30.21,ESE,105,0.0,3.0,76,0.00,,,0.16,0,LWC V2.00 B727,2013-09-16 01:48:00,
2013-09-15 19:50:00,55.3,47.9,30.21,ESE,104,2.0,9.0,76,0.00,,,0.00,0,LWC V2.00 B727,2013-09-16 01:50:00,
2013-09-15 19:53:00,55.2,47.8,30.21,East,97,0.0,5.0,76,0.00,,,0.16,0,LWC V2.00 B727,2013-09-16 01:53:00,
2013-09-15 19:58:00,55.2,48.1,30.21,ENE,75,7.0,9.0,77,0.00,,,0.16,0,LWC V2.00 B727,2013-09-16 01:58:00,
2013-09-15 20:00:00,55.2,48.1,30.21,ESE,112,4.0,11.0,77,0.00,,,0.00,0,LWC V2.00 B727,2013-09-16 02:00:00,
2013-09-15 20:10:00,55.2,48.1,30.21,ESE,112,4.0,11.0,77,0.00,,,0.00,0,LWC V2.00 B727,2013-09-16 02:10:00,
2013-09-15 20:20:00,55.2,48.1,30.21,ESE,112,4.0,11.0,77,0.00,,,0.00,0,LWC V2.00 B727,2013-09-16 02:20:00,
2013-09-15 20:36:00,55.0,48.3,30.24,East,90,2.0,3.0,78,0.00,,,0.16,0,LWC V2.00 B727,2013-09-16 02:36:00,
2013-09-15 20:41:00,54.9,48.2,30.24,East,90,0.0,0.0,78,0.00,,,0.16,0,LWC V2.00 B727,2013-09-16 02:41:00,
2013-09-15 20:46:00,54.9,48.5,30.24,East,90,2.0,3.0,79,0.00,,,0.16,0,LWC V2.00 B727,2013-09-16 02:46:00,
2013-09-15 20:51:00,55.0,48.9,30.24,East,90,0.0,1.0,80,0.00,,,0.16,0,LWC V2.00 B727,2013-09-16 02:51:00,
2013-09-15 20:56:00,55.0,48.9,30.26,South,184,4.0,5.0,80,0.00,,,0.16,0,LWC V2.00 B727,2013-09-16 02:56:00,
2013-09-15 21:01:00,55.2,49.5,30.27,SSW,200,3.0,8.0,81,0.00,,,0.16,0,LWC V2.00 B727,2013-09-16 03:01:00,
2013-09-15 21:06:00,55.5,50.1,30.27,South,179,4.0,7.0,82,0.00,,,0.16,0,LWC V2.00 B727,2013-09-16 03:06:00,
2013-09-15 21:11:00,55.5,47.7,30.27,SE,128,4.0,10.0,75,0.00,,,0.16,0,LWC V2.00 B727,2013-09-16 03:11:00,
2013-09-15 21:16:00,55.0,47.9,30.28,SSW,192,7.0,13.0,77,2.50,,,0.25,0,LWC V2.00 B727,2013-09-16 03:16:00,
2013-09-15 21:21:00,53.3,45.2,30.28,SE,143,6.0,8.0,74,3.81,,,0.52,0,LWC V2.00 B727,2013-09-16 03:21:00,
2013-09-15 21:26:00,51.8,45.2,30.28,SE,124,5.0,7.0,78,1.24,,,0.66,0,LWC V2.00 B727,2013-09-16 03:26:00,
2013-09-15 21:31:00,51.1,45.5,30.28,East,101,3.0,6.0,81,0.35,,,0.70,0,LWC V2.00 B727,2013-09-16 03:31:00,
2013-09-15 21:36:00,50.6,45.9,30.28,East,101,6.0,8.0,84,0.20,,,0.72,0,LWC V2.00 B727,2013-09-16 03:36:00,
2013-09-15 21:41:00,50.3,46.3,30.28,East,91,3.0,7.0,86,0.08,,,0.72,0,LWC V2.00 B727,2013-09-16 03:41:00,
2013-09-15 21:46:00,50.1,46.4,30.28,East,99,1.0,5.0,87,0.08,,,0.73,0,LWC V2.00 B727,2013-09-16 03:46:00,
2013-09-15 21:51:00,50.0,46.6,30.28,East,96,1.0,2.0,88,0.06,,,0.73,0,LWC V2.00 B727,2013-09-16 03:51:00,
2013-09-15 21:56:00,49.9,46.5,30.28,NE,49,0.0,3.0,88,0.04,,,0.73,0,LWC V2.00 B727,2013-09-16 03:56:00,
2013-09-15 22:01:00,49.9,46.8,30.28,NE,49,0.0,0.0,89,0.00,,,0.73,0,LWC V2.00 B727,2013-09-16 04:01:00,
2013-09-15 22:06:00,49.8,46.7,30.28,NNE,29,2.0,3.0,89,0.00,,,0.73,0,LWC V2.00 B727,2013-09-16 04:06:00,
2013-09-15 22:11:00,49.8,46.7,30.28,NNE,28,0.0,0.0,89,0.00,,,0.73,0,LWC V2.00 B727,2013-09-16 04:11:00,
2013-09-15 22:16:00,49.7,46.6,30.27,NNE,28,1.0,2.0,89,0.00,,,0.73,0,LWC V2.00 B727,2013-09-16 04:16:00,
2013-09-15 22:21:00,49.6,46.5,30.27,NNE,28,0.0,0.0,89,0.00,,,0.73,0,LWC V2.00 B727,2013-09-16 04:21:00,
2013-09-15 22:26:00,49.6,46.8,30.27,NNE,28,0.0,0.0,90,0.00,,,0.73,0,LWC V2.00 B727,2013-09-16 04:26:00,
2013-09-15 22:31:00,49.5,46.7,30.28,NNE,28,0.0,0.0,90,0.00,,,0.73,0,LWC V2.00 B727,2013-09-16 04:31:00,
2013-09-15 22:36:00,49.4,46.6,30.28,NNE,28,0.0,0.0,90,0.00,,,0.73,0,LWC V2.00 B727,2013-09-16 04:36:00,
2013-09-15 22:41:00,49.2,46.1,30.28,NNE,28,0.0,0.0,89,0.00,,,0.73,0,LWC V2.00 B727,2013-09-16 04:41:00,
2013-09-15 22:46:00,49.1,46.0,30.28,NNE,28,0.0,0.0,89,0.00,,,0.73,0,LWC V2.00 B727,2013-09-16 04:46:00,
2013-09-15 22:51:00,48.9,46.1,30.28,NNE,28,0.0,1.0,90,0.00,,,0.73,0,LWC V2.00 B727,2013-09-16 04:51:00,
2013-09-15 22:56:00,48.8,46.0,30.28,NNE,28,0.0,0.0,90,0.00,,,0.74,0,LWC V2.00 B727,2013-09-16 04:56:00,
2013-09-15 23:01:00,48.7,45.9,30.29,NNE,28,0.0,0.0,90,0.00,,,0.74,0,LWC V2.00 B727,2013-09-16 05:01:00,
2013-09-15 23:06:00,48.5,45.7,30.29,NNE,28,0.0,0.0,90,0.00,,,0.74,0,LWC V2.00 B727,2013-09-16 05:06:00,
2013-09-15 23:11:00,48.3,45.5,30.29,NNE,28,0.0,0.0,90,0.00,,,0.74,0,LWC V2.00 B727,2013-09-16 05:11:00,
2013-09-15 23:16:00,48.3,45.5,30.29,NNE,28,0.0,0.0,90,0.00,,,0.74,0,LWC V2.00 B727,2013-09-16 05:16:00,
2013-09-15 23:21:00,48.3,45.5,30.29,NE,37,1.0,3.0,90,0.00,,,0.74,0,LWC V2.00 B727,2013-09-16 05:21:00,
2013-09-15 23:26:00,48.4,45.9,30.29,ESE,116,3.0,5.0,91,0.00,,,0.74,0,LWC V2.00 B727,2013-09-16 05:26:00,
2013-09-15 23:31:00,48.4,45.9,30.29,ESE,116,2.0,4.0,91,0.00,,,0.74,0,LWC V2.00 B727,2013-09-16 05:31:00,
2013-09-15 23:36:00,48.3,45.8,30.29,ESE,116,0.0,2.0,91,0.00,,,0.74,0,LWC V2.00 B727,2013-09-16 05:36:00,
2013-09-15 23:41:00,48.3,45.8,30.29,SE,132,4.0,5.0,91,0.00,,,0.74,0,LWC V2.00 B727,2013-09-16 05:41:00,
2013-09-15 23:46:00,48.2,45.7,30.29,SE,137,4.0,5.0,91,0.00,,,0.74,0,LWC V2.00 B727,2013-09-16 05:46:00,
2013-09-15 23:51:00,48.2,45.7,30.29,SE,136,4.0,4.0,91,0.00,,,0.74,0,LWC V2.00 B727,2013-09-16 05:51:00,
2013-09-15 23:56:00,48.1,45.3,30.29,SE,136,4.0,5.0,90,0.00,,,0.74,0,LWC V2.00 B727,2013-09-16 05:56:00,